owner,sensor,date,latitude,longitude,vertical_datum,wind_speed,wind_to_direction,wind_speed_of_gust,qcFlag 
COMPS,ioos:station:USF.COMPS:BGC:1,2014-10-01T00:00:00Z,26.4040,-81.8810,10.0,2.66,270.66,4.11,'1111122,1111122,1111122' 
COMPS,ioos:station:USF.COMPS:BGC:1,2014-10-01T00:06:00Z,26.4040,-81.8810,10.0,2.63,264.15,4.21,'1111122,1111122,1111122' 
COMPS,ioos:station:USF.COMPS:BGC:1,2014-10-01T00:12:00Z,26.4040,-81.8810,10.0,2.79,264.22,4.41,'1111122,1111122,1111122' 
COMPS,ioos:station:USF.COMPS:BGC:1,2014-10-01T00:18:00Z,26.4040,-81.8810,10.0,2.03,275.0,4.01,'1111122,1111122,1111122' 
COMPS,ioos:station:USF.COMPS:BGC:1,2014-10-01T00:24:00Z,26.4040,-81.8810,10.0,2.37,283.78,3.62,'1111122,1111122,1111122' 
COMPS,ioos:station:USF.COMPS:BGC:1,2014-10-01T00:30:00Z,26.4040,-81.8810,10.0,2.25,284.66,3.62,'1111122,1111122,1111122' 
COMPS,ioos:station:USF.COMPS:BGC:1,2014-10-01T00:36:00Z,26.4040,-81.8810,10.0,2.12,273.14,4.01,'1111122,1111122,1111122' 
COMPS,ioos:station:USF.COMPS:BGC:1,2014-10-01T00:42:00Z,26.4040,-81.8810,10.0,1.45,267.56,2.45,'1111122,1111122,1111122' 
COMPS,ioos:station:USF.COMPS:BGC:1,2014-10-01T00:48:00Z,26.4040,-81.8810,10.0,1.8,282.69,3.33,'1111122,1111122,1111122' 
COMPS,ioos:station:USF.COMPS:BGC:1,2014-10-01T00:54:00Z,26.4040,-81.8810,10.0,1.83,280.1,3.33,'1111122,1111122,1111122' 
COMPS,ioos:station:USF.COMPS:BGC:1,2014-10-01T01:00:00Z,26.4040,-81.8810,10.0,1.88,271.17,2.74,'1111122,1111122,1111122' 
COMPS,ioos:station:USF.COMPS:BGC:1,2014-10-01T01:06:00Z,26.4040,-81.8810,10.0,1.65,268.41,2.74,'1111122,1111122,1111122' 
COMPS,ioos:station:USF.COMPS:BGC:1,2014-10-01T01:12:00Z,26.4040,-81.8810,10.0,1.83,265.93,2.35,'1111122,1111122,1111122' 
COMPS,ioos:station:USF.COMPS:BGC:1,2014-10-01T01:18:00Z,26.4040,-81.8810,10.0,2.55,261.06,4.11,'1111122,1111122,1111122' 
COMPS,ioos:station:USF.COMPS:BGC:1,2014-10-01T01:24:00Z,26.4040,-81.8810,10.0,2.83,258.4,4.11,'1111122,1111122,1111122' 
COMPS,ioos:station:USF.COMPS:BGC:1,2014-10-01T01:30:00Z,26.4040,-81.8810,10.0,2.36,266.0,3.43,'1111122,1111122,1111122' 
COMPS,ioos:station:USF.COMPS:BGC:1,2014-10-01T01:36:00Z,26.4040,-81.8810,10.0,2.14,279.3,3.33,'1111122,1111122,1111122' 
COMPS,ioos:station:USF.COMPS:BGC:1,2014-10-01T01:42:00Z,26.4040,-81.8810,10.0,2.27,285.79,3.33,'1111122,1111122,1111122' 
COMPS,ioos:station:USF.COMPS:BGC:1,2014-10-01T01:48:00Z,26.4040,-81.8810,10.0,1.79,283.52,2.74,'1111122,1111122,1111122' 
COMPS,ioos:station:USF.COMPS:BGC:1,2014-10-01T01:54:00Z,26.4040,-81.8810,10.0,1.35,252.57,2.25,'1111122,1111122,1111122' 
COMPS,ioos:station:USF.COMPS:BGC:1,2014-10-01T02:00:00Z,26.4040,-81.8810,10.0,2.03,258.95,2.84,'1111122,1111122,1111122' 
COMPS,ioos:station:USF.COMPS:BGC:1,2014-10-01T02:06:00Z,26.4040,-81.8810,10.0,2.01,265.25,2.84,'1111122,1111122,1111122' 
COMPS,ioos:station:USF.COMPS:BGC:1,2014-10-01T02:12:00Z,26.4040,-81.8810,10.0,1.72,260.14,2.74,'1111122,1111122,1111122' 
COMPS,ioos:station:USF.COMPS:BGC:1,2014-10-01T02:18:00Z,26.4040,-81.8810,10.0,2.66,258.72,4.01,'1111122,1111122,1111122' 
COMPS,ioos:station:USF.COMPS:BGC:1,2014-10-01T02:24:00Z,26.4040,-81.8810,10.0,2.53,249.76,3.03,'1111122,1111122,1111122' 
COMPS,ioos:station:USF.COMPS:BGC:1,2014-10-01T02:30:00Z,26.4040,-81.8810,10.0,2.89,253.42,4.21,'1111122,1111122,1111122' 
COMPS,ioos:station:USF.COMPS:BGC:1,2014-10-01T02:36:00Z,26.4040,-81.8810,10.0,2.88,261.37,4.01,'1111122,1111122,1111122' 
COMPS,ioos:station:USF.COMPS:BGC:1,2014-10-01T02:42:00Z,26.4040,-81.8810,10.0,2.75,260.46,3.62,'1111122,1111122,1111122' 
COMPS,ioos:station:USF.COMPS:BGC:1,2014-10-01T02:48:00Z,26.4040,-81.8810,10.0,2.67,260.59,3.62,'1111122,1111122,1111122' 
COMPS,ioos:station:USF.COMPS:BGC:1,2014-10-01T02:54:00Z,26.4040,-81.8810,10.0,3.14,245.44,4.9,'1111122,1111122,1111122' 
COMPS,ioos:station:USF.COMPS:BGC:1,2014-10-01T03:00:00Z,26.4040,-81.8810,10.0,3.67,262.04,6.66,'1111122,1111122,1111122' 
COMPS,ioos:station:USF.COMPS:BGC:1,2014-10-01T03:06:00Z,26.4040,-81.8810,10.0,2.62,275.18,4.01,'1111122,1111122,1111122' 
COMPS,ioos:station:USF.COMPS:BGC:1,2014-10-01T03:12:00Z,26.4040,-81.8810,10.0,2.0,279.17,4.11,'1111122,1111122,1111122' 
COMPS,ioos:station:USF.COMPS:BGC:1,2014-10-01T03:18:00Z,26.4040,-81.8810,10.0,1.34,271.96,2.05,'1111122,1111122,1111122' 
COMPS,ioos:station:USF.COMPS:BGC:1,2014-10-01T03:24:00Z,26.4040,-81.8810,10.0,1.93,274.28,3.23,'1111122,1111122,1111122' 
COMPS,ioos:station:USF.COMPS:BGC:1,2014-10-01T03:30:00Z,26.4040,-81.8810,10.0,1.75,278.73,2.54,'1111122,1111122,1111122' 
COMPS,ioos:station:USF.COMPS:BGC:1,2014-10-01T03:36:00Z,26.4040,-81.8810,10.0,1.97,276.11,2.54,'1111122,1111122,1111122' 
COMPS,ioos:station:USF.COMPS:BGC:1,2014-10-01T03:42:00Z,26.4040,-81.8810,10.0,1.33,275.39,2.05,'1111122,1111122,1111122' 
COMPS,ioos:station:USF.COMPS:BGC:1,2014-10-01T03:48:00Z,26.4040,-81.8810,10.0,1.54,267.01,2.64,'1111122,1111122,1111122' 
COMPS,ioos:station:USF.COMPS:BGC:1,2014-10-01T03:54:00Z,26.4040,-81.8810,10.0,1.82,262.55,2.64,'1111122,1111122,1111122' 
COMPS,ioos:station:USF.COMPS:BGC:1,2014-10-01T04:00:00Z,26.4040,-81.8810,10.0,2.11,263.78,2.94,'1111122,1111122,1111122' 
COMPS,ioos:station:USF.COMPS:BGC:1,2014-10-01T04:06:00Z,26.4040,-81.8810,10.0,1.89,259.38,2.64,'1111122,1111122,1111122' 
COMPS,ioos:station:USF.COMPS:BGC:1,2014-10-01T04:12:00Z,26.4040,-81.8810,10.0,2.24,253.42,2.84,'1111122,1111122,1111122' 
COMPS,ioos:station:USF.COMPS:BGC:1,2014-10-01T04:18:00Z,26.4040,-81.8810,10.0,2.11,254.84,3.23,'1111122,1111122,1111122' 
COMPS,ioos:station:USF.COMPS:BGC:1,2014-10-01T04:24:00Z,26.4040,-81.8810,10.0,2.38,254.64,3.03,'1111122,1111122,1111122' 
COMPS,ioos:station:USF.COMPS:BGC:1,2014-10-01T04:30:00Z,26.4040,-81.8810,10.0,1.75,264.65,2.35,'1111122,1111122,1111122' 
COMPS,ioos:station:USF.COMPS:BGC:1,2014-10-01T04:36:00Z,26.4040,-81.8810,10.0,1.43,258.18,2.25,'1111122,1111122,1111122' 
COMPS,ioos:station:USF.COMPS:BGC:1,2014-10-01T04:42:00Z,26.4040,-81.8810,10.0,1.91,247.61,3.23,'1111122,1111122,1111122' 
COMPS,ioos:station:USF.COMPS:BGC:1,2014-10-01T04:48:00Z,26.4040,-81.8810,10.0,2.85,240.81,3.52,'1111122,1111122,1111122' 
COMPS,ioos:station:USF.COMPS:BGC:1,2014-10-01T04:54:00Z,26.4040,-81.8810,10.0,3.43,235.58,4.01,'1111122,1111122,1111122' 
COMPS,ioos:station:USF.COMPS:BGC:1,2014-10-01T05:00:00Z,26.4040,-81.8810,10.0,3.3,237.23,3.82,'1111122,1111122,1111122' 
COMPS,ioos:station:USF.COMPS:BGC:1,2014-10-01T05:06:00Z,26.4040,-81.8810,10.0,2.84,236.1,3.52,'1111122,1111122,1111122' 
COMPS,ioos:station:USF.COMPS:BGC:1,2014-10-01T05:12:00Z,26.4040,-81.8810,10.0,3.78,228.16,4.41,'1111122,1111122,1111122' 
COMPS,ioos:station:USF.COMPS:BGC:1,2014-10-01T05:18:00Z,26.4040,-81.8810,10.0,4.9,238.51,5.58,'1111122,1111122,1111122' 
COMPS,ioos:station:USF.COMPS:BGC:1,2014-10-01T05:24:00Z,26.4040,-81.8810,10.0,4.92,236.61,5.88,'1111122,1111122,1111122' 
COMPS,ioos:station:USF.COMPS:BGC:1,2014-10-01T05:30:00Z,26.4040,-81.8810,10.0,4.62,231.81,5.09,'1111122,1111122,1111122' 
COMPS,ioos:station:USF.COMPS:BGC:1,2014-10-01T05:36:00Z,26.4040,-81.8810,10.0,4.83,240.36,5.58,'1111122,1111122,1111122' 
COMPS,ioos:station:USF.COMPS:BGC:1,2014-10-01T05:42:00Z,26.4040,-81.8810,10.0,4.62,233.54,5.19,'1111122,1111122,1111122' 
COMPS,ioos:station:USF.COMPS:BGC:1,2014-10-01T05:48:00Z,26.4040,-81.8810,10.0,4.5,243.9,5.29,'1111122,1111122,1111122' 
COMPS,ioos:station:USF.COMPS:BGC:1,2014-10-01T05:54:00Z,26.4040,-81.8810,10.0,3.96,232.64,4.7,'1111122,1111122,1111122' 
COMPS,ioos:station:USF.COMPS:BGC:1,2014-10-01T06:00:00Z,26.4040,-81.8810,10.0,-99.99,-99.99,-99.99,'1111122,1111122,1111122' 
COMPS,ioos:station:USF.COMPS:BGC:1,2014-10-01T06:06:00Z,26.4040,-81.8810,10.0,-99.99,-99.99,-99.99,'1111122,1111122,1111122' 
COMPS,ioos:station:USF.COMPS:BGC:1,2014-10-01T06:12:00Z,26.4040,-81.8810,10.0,-99.99,-99.99,-99.99,'1111122,1111122,1111122' 
COMPS,ioos:station:USF.COMPS:BGC:1,2014-10-01T06:18:00Z,26.4040,-81.8810,10.0,-99.99,-99.99,-99.99,'1111122,1111122,1111122' 
COMPS,ioos:station:USF.COMPS:BGC:1,2014-10-01T06:24:00Z,26.4040,-81.8810,10.0,-99.99,-99.99,-99.99,'1111122,1111122,1111122' 
COMPS,ioos:station:USF.COMPS:BGC:1,2014-10-01T06:30:00Z,26.4040,-81.8810,10.0,-99.99,-99.99,-99.99,'1111122,1111122,1111122' 
COMPS,ioos:station:USF.COMPS:BGC:1,2014-10-01T06:36:00Z,26.4040,-81.8810,10.0,-99.99,-99.99,-99.99,'1111122,1111122,1111122' 
COMPS,ioos:station:USF.COMPS:BGC:1,2014-10-01T06:42:00Z,26.4040,-81.8810,10.0,-99.99,-99.99,-99.99,'1111122,1111122,1111122' 
COMPS,ioos:station:USF.COMPS:BGC:1,2014-10-01T06:48:00Z,26.4040,-81.8810,10.0,-99.99,-99.99,-99.99,'1111122,1111122,1111122' 
COMPS,ioos:station:USF.COMPS:BGC:1,2014-10-01T06:54:00Z,26.4040,-81.8810,10.0,-99.99,-99.99,-99.99,'1111122,1111122,1111122' 
COMPS,ioos:station:USF.COMPS:BGC:1,2014-10-01T08:00:00Z,26.4040,-81.8810,10.0,4.78,225.8,5.48,'1111122,1111122,1111122' 
COMPS,ioos:station:USF.COMPS:BGC:1,2014-10-01T08:06:00Z,26.4040,-81.8810,10.0,5.46,221.3,6.37,'1111122,1111122,1111122' 
COMPS,ioos:station:USF.COMPS:BGC:1,2014-10-01T08:12:00Z,26.4040,-81.8810,10.0,5.63,225.39,6.27,'1111122,1111122,1111122' 
COMPS,ioos:station:USF.COMPS:BGC:1,2014-10-01T08:18:00Z,26.4040,-81.8810,10.0,5.19,221.86,6.27,'1111122,1111122,1111122' 
COMPS,ioos:station:USF.COMPS:BGC:1,2014-10-01T08:24:00Z,26.4040,-81.8810,10.0,5.4,220.03,6.27,'1111122,1111122,1111122' 
COMPS,ioos:station:USF.COMPS:BGC:1,2014-10-01T08:30:00Z,26.4040,-81.8810,10.0,5.78,216.66,6.86,'1111122,1111122,1111122' 
COMPS,ioos:station:USF.COMPS:BGC:1,2014-10-01T08:36:00Z,26.4040,-81.8810,10.0,5.77,216.91,6.56,'1111122,1111122,1111122' 
COMPS,ioos:station:USF.COMPS:BGC:1,2014-10-01T08:42:00Z,26.4040,-81.8810,10.0,5.75,216.45,6.56,'1111122,1111122,1111122' 
COMPS,ioos:station:USF.COMPS:BGC:1,2014-10-01T08:48:00Z,26.4040,-81.8810,10.0,6.16,216.03,7.25,'1111122,1111122,1111122' 
COMPS,ioos:station:USF.COMPS:BGC:1,2014-10-01T08:54:00Z,26.4040,-81.8810,10.0,6.76,227.23,8.72,'1111122,1111122,1111122' 
COMPS,ioos:station:USF.COMPS:BGC:1,2014-10-01T09:00:00Z,26.4040,-81.8810,10.0,5.08,242.34,7.44,'1111122,1111122,1111122' 
COMPS,ioos:station:USF.COMPS:BGC:1,2014-10-01T09:06:00Z,26.4040,-81.8810,10.0,2.93,244.13,5.29,'1111122,1111122,1111122' 
COMPS,ioos:station:USF.COMPS:BGC:1,2014-10-01T09:12:00Z,26.4040,-81.8810,10.0,1.68,259.21,2.54,'1111122,1111122,1111122' 
COMPS,ioos:station:USF.COMPS:BGC:1,2014-10-01T09:18:00Z,26.4040,-81.8810,10.0,2.24,153.48,5.48,'1111122,1111122,1111122' 
COMPS,ioos:station:USF.COMPS:BGC:1,2014-10-01T09:24:00Z,26.4040,-81.8810,10.0,3.26,288.33,5.68,'1111122,1111122,1111122' 
COMPS,ioos:station:USF.COMPS:BGC:1,2014-10-01T09:30:00Z,26.4040,-81.8810,10.0,4.76,317.53,5.68,'1111122,1111122,1111122' 
COMPS,ioos:station:USF.COMPS:BGC:1,2014-10-01T09:36:00Z,26.4040,-81.8810,10.0,3.51,294.24,4.99,'1111122,1111122,1111122' 
COMPS,ioos:station:USF.COMPS:BGC:1,2014-10-01T09:42:00Z,26.4040,-81.8810,10.0,5.62,263.23,9.01,'1111122,1111122,1111122' 
COMPS,ioos:station:USF.COMPS:BGC:1,2014-10-01T09:48:00Z,26.4040,-81.8810,10.0,5.66,254.93,9.6,'1111122,1111122,1111122' 
COMPS,ioos:station:USF.COMPS:BGC:1,2014-10-01T09:54:00Z,26.4040,-81.8810,10.0,2.36,276.69,3.33,'1111122,1111122,1111122' 
COMPS,ioos:station:USF.COMPS:BGC:1,2014-10-01T10:00:00Z,26.4040,-81.8810,10.0,1.52,290.67,2.15,'1111122,1111122,1111122' 
COMPS,ioos:station:USF.COMPS:BGC:1,2014-10-01T10:06:00Z,26.4040,-81.8810,10.0,1.01,256.09,1.66,'1111122,1111122,1111122' 
COMPS,ioos:station:USF.COMPS:BGC:1,2014-10-01T10:12:00Z,26.4040,-81.8810,10.0,1.79,193.26,2.94,'1111122,1111122,1111122' 
COMPS,ioos:station:USF.COMPS:BGC:1,2014-10-01T10:18:00Z,26.4040,-81.8810,10.0,2.08,159.59,2.64,'1111122,1111122,1111122' 
COMPS,ioos:station:USF.COMPS:BGC:1,2014-10-01T10:24:00Z,26.4040,-81.8810,10.0,2.31,166.88,3.52,'1111122,1111122,1111122' 
COMPS,ioos:station:USF.COMPS:BGC:1,2014-10-01T10:30:00Z,26.4040,-81.8810,10.0,2.12,248.13,3.82,'1111122,1111122,1111122' 
COMPS,ioos:station:USF.COMPS:BGC:1,2014-10-01T10:36:00Z,26.4040,-81.8810,10.0,2.02,275.71,4.31,'1111122,1111122,1111122' 
COMPS,ioos:station:USF.COMPS:BGC:1,2014-10-01T10:42:00Z,26.4040,-81.8810,10.0,5.34,240.52,6.46,'1111122,1111122,1111122' 
COMPS,ioos:station:USF.COMPS:BGC:1,2014-10-01T10:48:00Z,26.4040,-81.8810,10.0,5.64,241.74,6.37,'1111122,1111122,1111122' 
COMPS,ioos:station:USF.COMPS:BGC:1,2014-10-01T10:54:00Z,26.4040,-81.8810,10.0,5.92,240.92,6.86,'1111122,1111122,1111122' 
COMPS,ioos:station:USF.COMPS:BGC:1,2014-10-01T11:00:00Z,26.4040,-81.8810,10.0,6.04,241.87,6.66,'1111122,1111122,1111122' 
COMPS,ioos:station:USF.COMPS:BGC:1,2014-10-01T11:06:00Z,26.4040,-81.8810,10.0,5.77,233.13,6.76,'1111122,1111122,1111122' 
COMPS,ioos:station:USF.COMPS:BGC:1,2014-10-01T11:12:00Z,26.4040,-81.8810,10.0,6.12,230.47,6.76,'1111122,1111122,1111122' 
COMPS,ioos:station:USF.COMPS:BGC:1,2014-10-01T11:18:00Z,26.4040,-81.8810,10.0,6.08,239.33,6.86,'1111122,1111122,1111122' 
COMPS,ioos:station:USF.COMPS:BGC:1,2014-10-01T11:24:00Z,26.4040,-81.8810,10.0,6.12,238.71,7.54,'1111122,1111122,1111122' 
COMPS,ioos:station:USF.COMPS:BGC:1,2014-10-01T11:30:00Z,26.4040,-81.8810,10.0,6.32,237.73,7.35,'1111122,1111122,1111122' 
COMPS,ioos:station:USF.COMPS:BGC:1,2014-10-01T11:36:00Z,26.4040,-81.8810,10.0,6.49,236.57,7.25,'1111122,1111122,1111122' 
COMPS,ioos:station:USF.COMPS:BGC:1,2014-10-01T11:42:00Z,26.4040,-81.8810,10.0,5.87,235.82,6.66,'1111122,1111122,1111122' 
COMPS,ioos:station:USF.COMPS:BGC:1,2014-10-01T11:48:00Z,26.4040,-81.8810,10.0,5.79,239.4,6.76,'1111122,1111122,1111122' 
COMPS,ioos:station:USF.COMPS:BGC:1,2014-10-01T11:54:00Z,26.4040,-81.8810,10.0,5.86,237.18,6.66,'1111122,1111122,1111122' 
COMPS,ioos:station:USF.COMPS:BGC:1,2014-10-01T12:00:00Z,26.4040,-81.8810,10.0,5.31,239.32,6.17,'1111122,1111122,1111122' 
COMPS,ioos:station:USF.COMPS:BGC:1,2014-10-01T12:06:00Z,26.4040,-81.8810,10.0,5.41,241.77,6.27,'1111122,1111122,1111122' 
COMPS,ioos:station:USF.COMPS:BGC:1,2014-10-01T12:12:00Z,26.4040,-81.8810,10.0,5.57,241.04,6.46,'1111122,1111122,1111122' 
COMPS,ioos:station:USF.COMPS:BGC:1,2014-10-01T12:18:00Z,26.4040,-81.8810,10.0,5.88,240.09,6.86,'1111122,1111122,1111122' 
COMPS,ioos:station:USF.COMPS:BGC:1,2014-10-01T12:24:00Z,26.4040,-81.8810,10.0,5.6,240.16,6.27,'1111122,1111122,1111122' 
COMPS,ioos:station:USF.COMPS:BGC:1,2014-10-01T12:30:00Z,26.4040,-81.8810,10.0,6.13,237.54,6.66,'1111122,1111122,1111122' 
COMPS,ioos:station:USF.COMPS:BGC:1,2014-10-01T12:36:00Z,26.4040,-81.8810,10.0,6.04,247.05,6.66,'1111122,1111122,1111122' 
COMPS,ioos:station:USF.COMPS:BGC:1,2014-10-01T12:42:00Z,26.4040,-81.8810,10.0,5.42,248.16,6.37,'1111122,1111122,1111122' 
COMPS,ioos:station:USF.COMPS:BGC:1,2014-10-01T12:48:00Z,26.4040,-81.8810,10.0,5.31,246.9,6.07,'1111122,1111122,1111122' 
COMPS,ioos:station:USF.COMPS:BGC:1,2014-10-01T12:54:00Z,26.4040,-81.8810,10.0,5.34,244.28,6.07,'1111122,1111122,1111122' 
COMPS,ioos:station:USF.COMPS:BGC:1,2014-10-01T13:00:00Z,26.4040,-81.8810,10.0,5.26,240.77,5.97,'1111122,1111122,1111122' 
COMPS,ioos:station:USF.COMPS:BGC:1,2014-10-01T13:06:00Z,26.4040,-81.8810,10.0,5.52,237.86,6.66,'1111122,1111122,1111122' 
COMPS,ioos:station:USF.COMPS:BGC:1,2014-10-01T13:12:00Z,26.4040,-81.8810,10.0,5.95,236.3,6.66,'1111122,1111122,1111122' 
COMPS,ioos:station:USF.COMPS:BGC:1,2014-10-01T13:18:00Z,26.4040,-81.8810,10.0,5.49,251.84,7.15,'1111122,1111122,1111122' 
COMPS,ioos:station:USF.COMPS:BGC:1,2014-10-01T13:24:00Z,26.4040,-81.8810,10.0,4.2,257.66,5.09,'1111122,1111122,1111122' 
COMPS,ioos:station:USF.COMPS:BGC:1,2014-10-01T13:30:00Z,26.4040,-81.8810,10.0,3.83,253.62,5.09,'1111122,1111122,1111122' 
COMPS,ioos:station:USF.COMPS:BGC:1,2014-10-01T13:36:00Z,26.4040,-81.8810,10.0,4.41,253.06,6.66,'1111122,1111122,1111122' 
COMPS,ioos:station:USF.COMPS:BGC:1,2014-10-01T13:42:00Z,26.4040,-81.8810,10.0,5.56,244.18,6.95,'1111122,1111122,1111122' 
COMPS,ioos:station:USF.COMPS:BGC:1,2014-10-01T13:48:00Z,26.4040,-81.8810,10.0,4.12,285.9,6.95,'1111122,1111122,1111122' 
COMPS,ioos:station:USF.COMPS:BGC:1,2014-10-01T13:54:00Z,26.4040,-81.8810,10.0,2.95,295.89,4.21,'1111122,1111122,1111122' 
COMPS,ioos:station:USF.COMPS:BGC:1,2014-10-01T14:00:00Z,26.4040,-81.8810,10.0,1.35,305.43,2.25,'1111122,1111122,1111122' 
COMPS,ioos:station:USF.COMPS:BGC:1,2014-10-01T14:06:00Z,26.4040,-81.8810,10.0,1.38,316.33,1.96,'1111122,1111122,1111122' 
COMPS,ioos:station:USF.COMPS:BGC:1,2014-10-01T14:12:00Z,26.4040,-81.8810,10.0,1.36,286.72,2.15,'1111122,1111122,1111122' 
COMPS,ioos:station:USF.COMPS:BGC:1,2014-10-01T14:18:00Z,26.4040,-81.8810,10.0,1.58,275.75,2.84,'1111122,1111122,1111122' 
COMPS,ioos:station:USF.COMPS:BGC:1,2014-10-01T14:24:00Z,26.4040,-81.8810,10.0,4.53,279.93,7.05,'1111122,1111122,1111122' 
COMPS,ioos:station:USF.COMPS:BGC:1,2014-10-01T14:30:00Z,26.4040,-81.8810,10.0,3.8,280.19,5.48,'1111122,1111122,1111122' 
COMPS,ioos:station:USF.COMPS:BGC:1,2014-10-01T14:36:00Z,26.4040,-81.8810,10.0,3.64,288.68,5.19,'1111122,1111122,1111122' 
COMPS,ioos:station:USF.COMPS:BGC:1,2014-10-01T14:42:00Z,26.4040,-81.8810,10.0,3.51,314.67,4.5,'1111122,1111122,1111122' 
COMPS,ioos:station:USF.COMPS:BGC:1,2014-10-01T14:48:00Z,26.4040,-81.8810,10.0,2.62,294.57,5.19,'1111122,1111122,1111122' 
COMPS,ioos:station:USF.COMPS:BGC:1,2014-10-01T14:54:00Z,26.4040,-81.8810,10.0,4.3,253.18,6.07,'1111122,1111122,1111122' 
COMPS,ioos:station:USF.COMPS:BGC:1,2014-10-01T15:00:00Z,26.4040,-81.8810,10.0,2.48,246.09,3.52,'1111122,1111122,1111122' 
COMPS,ioos:station:USF.COMPS:BGC:1,2014-10-01T15:06:00Z,26.4040,-81.8810,10.0,1.94,286.54,3.03,'1111122,1111122,1111122' 
COMPS,ioos:station:USF.COMPS:BGC:1,2014-10-01T15:12:00Z,26.4040,-81.8810,10.0,1.51,290.59,2.35,'1111122,1111122,1111122' 
COMPS,ioos:station:USF.COMPS:BGC:1,2014-10-01T15:18:00Z,26.4040,-81.8810,10.0,0.88,321.98,1.47,'1111122,1111122,1111122' 
COMPS,ioos:station:USF.COMPS:BGC:1,2014-10-01T15:24:00Z,26.4040,-81.8810,10.0,1.0,296.48,3.33,'1111122,1111122,1111122' 
COMPS,ioos:station:USF.COMPS:BGC:1,2014-10-01T15:30:00Z,26.4040,-81.8810,10.0,2.81,271.07,4.21,'1111122,1111122,1111122' 
COMPS,ioos:station:USF.COMPS:BGC:1,2014-10-01T15:36:00Z,26.4040,-81.8810,10.0,4.25,253.32,5.58,'1111122,1111122,1111122' 
COMPS,ioos:station:USF.COMPS:BGC:1,2014-10-01T15:42:00Z,26.4040,-81.8810,10.0,4.89,254.29,5.78,'1111122,1111122,1111122' 
COMPS,ioos:station:USF.COMPS:BGC:1,2014-10-01T15:48:00Z,26.4040,-81.8810,10.0,4.46,250.23,5.29,'1111122,1111122,1111122' 
COMPS,ioos:station:USF.COMPS:BGC:1,2014-10-01T15:54:00Z,26.4040,-81.8810,10.0,4.55,245.97,5.29,'1111122,1111122,1111122' 
COMPS,ioos:station:USF.COMPS:BGC:1,2014-10-01T16:00:00Z,26.4040,-81.8810,10.0,4.32,248.2,5.29,'1111122,1111122,1111122' 
COMPS,ioos:station:USF.COMPS:BGC:1,2014-10-01T16:06:00Z,26.4040,-81.8810,10.0,4.38,245.75,5.09,'1111122,1111122,1111122' 
COMPS,ioos:station:USF.COMPS:BGC:1,2014-10-01T16:12:00Z,26.4040,-81.8810,10.0,4.52,249.75,5.19,'1111122,1111122,1111122' 
COMPS,ioos:station:USF.COMPS:BGC:1,2014-10-01T16:18:00Z,26.4040,-81.8810,10.0,4.45,246.99,5.29,'1111122,1111122,1111122' 
COMPS,ioos:station:USF.COMPS:BGC:1,2014-10-01T16:24:00Z,26.4040,-81.8810,10.0,4.25,235.49,4.9,'1111122,1111122,1111122' 
COMPS,ioos:station:USF.COMPS:BGC:1,2014-10-01T16:30:00Z,26.4040,-81.8810,10.0,4.28,228.93,4.99,'1111122,1111122,1111122' 
COMPS,ioos:station:USF.COMPS:BGC:1,2014-10-01T16:36:00Z,26.4040,-81.8810,10.0,4.47,228.93,5.09,'1111122,1111122,1111122' 
COMPS,ioos:station:USF.COMPS:BGC:1,2014-10-01T16:42:00Z,26.4040,-81.8810,10.0,5.47,234.86,6.46,'1111122,1111122,1111122' 
COMPS,ioos:station:USF.COMPS:BGC:1,2014-10-01T16:48:00Z,26.4040,-81.8810,10.0,5.81,232.9,6.37,'1111122,1111122,1111122' 
COMPS,ioos:station:USF.COMPS:BGC:1,2014-10-01T16:54:00Z,26.4040,-81.8810,10.0,4.63,234.07,5.39,'1111122,1111122,1111122' 
COMPS,ioos:station:USF.COMPS:BGC:1,2014-10-01T17:00:00Z,26.4040,-81.8810,10.0,4.32,237.73,5.19,'1111122,1111122,1111122' 
COMPS,ioos:station:USF.COMPS:BGC:1,2014-10-01T17:06:00Z,26.4040,-81.8810,10.0,4.69,242.83,5.97,'1111122,1111122,1111122' 
COMPS,ioos:station:USF.COMPS:BGC:1,2014-10-01T17:12:00Z,26.4040,-81.8810,10.0,4.99,242.03,5.68,'1111122,1111122,1111122' 
COMPS,ioos:station:USF.COMPS:BGC:1,2014-10-01T17:18:00Z,26.4040,-81.8810,10.0,4.53,240.03,5.19,'1111122,1111122,1111122' 
COMPS,ioos:station:USF.COMPS:BGC:1,2014-10-01T17:24:00Z,26.4040,-81.8810,10.0,4.61,246.51,5.48,'1111122,1111122,1111122' 
COMPS,ioos:station:USF.COMPS:BGC:1,2014-10-01T17:30:00Z,26.4040,-81.8810,10.0,5.0,247.34,5.97,'1111122,1111122,1111122' 
COMPS,ioos:station:USF.COMPS:BGC:1,2014-10-01T17:36:00Z,26.4040,-81.8810,10.0,4.89,253.12,6.56,'1111122,1111122,1111122' 
COMPS,ioos:station:USF.COMPS:BGC:1,2014-10-01T17:42:00Z,26.4040,-81.8810,10.0,5.08,250.14,6.56,'1111122,1111122,1111122' 
COMPS,ioos:station:USF.COMPS:BGC:1,2014-10-01T17:48:00Z,26.4040,-81.8810,10.0,5.01,252.78,6.27,'1111122,1111122,1111122' 
COMPS,ioos:station:USF.COMPS:BGC:1,2014-10-01T17:54:00Z,26.4040,-81.8810,10.0,5.91,249.46,7.05,'1111122,1111122,1111122' 
COMPS,ioos:station:USF.COMPS:BGC:1,2014-10-01T18:00:00Z,26.4040,-81.8810,10.0,5.79,246.24,6.27,'1111122,1111122,1111122' 
COMPS,ioos:station:USF.COMPS:BGC:1,2014-10-01T18:06:00Z,26.4040,-81.8810,10.0,5.51,248.93,6.46,'1111122,1111122,1111122' 
COMPS,ioos:station:USF.COMPS:BGC:1,2014-10-01T18:12:00Z,26.4040,-81.8810,10.0,5.41,252.1,6.66,'1111122,1111122,1111122' 
COMPS,ioos:station:USF.COMPS:BGC:1,2014-10-01T18:18:00Z,26.4040,-81.8810,10.0,5.33,251.91,6.27,'1111122,1111122,1111122' 
COMPS,ioos:station:USF.COMPS:BGC:1,2014-10-01T18:24:00Z,26.4040,-81.8810,10.0,5.52,246.02,6.76,'1111122,1111122,1111122' 
COMPS,ioos:station:USF.COMPS:BGC:1,2014-10-01T18:30:00Z,26.4040,-81.8810,10.0,5.78,250.01,6.46,'1111122,1111122,1111122' 
COMPS,ioos:station:USF.COMPS:BGC:1,2014-10-01T18:36:00Z,26.4040,-81.8810,10.0,5.26,248.49,5.88,'1111122,1111122,1111122' 
COMPS,ioos:station:USF.COMPS:BGC:1,2014-10-01T18:42:00Z,26.4040,-81.8810,10.0,4.98,248.1,6.07,'1111122,1111122,1111122' 
COMPS,ioos:station:USF.COMPS:BGC:1,2014-10-01T18:48:00Z,26.4040,-81.8810,10.0,5.42,245.4,5.97,'1111122,1111122,1111122' 
COMPS,ioos:station:USF.COMPS:BGC:1,2014-10-01T18:54:00Z,26.4040,-81.8810,10.0,5.03,243.16,5.68,'1111122,1111122,1111122' 
COMPS,ioos:station:USF.COMPS:BGC:1,2014-10-01T19:00:00Z,26.4040,-81.8810,10.0,5.24,244.62,5.88,'1111122,1111122,1111122' 
COMPS,ioos:station:USF.COMPS:BGC:1,2014-10-01T19:06:00Z,26.4040,-81.8810,10.0,5.55,244.08,6.37,'1111122,1111122,1111122' 
COMPS,ioos:station:USF.COMPS:BGC:1,2014-10-01T19:12:00Z,26.4040,-81.8810,10.0,5.13,245.66,5.88,'1111122,1111122,1111122' 
COMPS,ioos:station:USF.COMPS:BGC:1,2014-10-01T19:18:00Z,26.4040,-81.8810,10.0,4.91,249.72,5.78,'1111122,1111122,1111122' 
COMPS,ioos:station:USF.COMPS:BGC:1,2014-10-01T19:24:00Z,26.4040,-81.8810,10.0,4.92,248.56,5.88,'1111122,1111122,1111122' 
COMPS,ioos:station:USF.COMPS:BGC:1,2014-10-01T19:30:00Z,26.4040,-81.8810,10.0,5.16,253.75,6.07,'1111122,1111122,1111122' 
COMPS,ioos:station:USF.COMPS:BGC:1,2014-10-01T19:36:00Z,26.4040,-81.8810,10.0,5.18,248.63,6.27,'1111122,1111122,1111122' 
COMPS,ioos:station:USF.COMPS:BGC:1,2014-10-01T19:42:00Z,26.4040,-81.8810,10.0,5.31,246.39,6.07,'1111122,1111122,1111122' 
COMPS,ioos:station:USF.COMPS:BGC:1,2014-10-01T19:48:00Z,26.4040,-81.8810,10.0,5.37,251.35,6.37,'1111122,1111122,1111122' 
COMPS,ioos:station:USF.COMPS:BGC:1,2014-10-01T19:54:00Z,26.4040,-81.8810,10.0,5.39,252.34,6.46,'1111122,1111122,1111122' 
COMPS,ioos:station:USF.COMPS:BGC:1,2014-10-01T20:00:00Z,26.4040,-81.8810,10.0,5.69,252.62,6.66,'1111122,1111122,1111122' 
COMPS,ioos:station:USF.COMPS:BGC:1,2014-10-01T20:06:00Z,26.4040,-81.8810,10.0,5.85,244.85,6.46,'1111122,1111122,1111122' 
COMPS,ioos:station:USF.COMPS:BGC:1,2014-10-01T20:12:00Z,26.4040,-81.8810,10.0,6.13,250.85,7.84,'1111122,1111122,1111122' 
COMPS,ioos:station:USF.COMPS:BGC:1,2014-10-01T20:18:00Z,26.4040,-81.8810,10.0,6.29,254.88,7.84,'1111122,1111122,1111122' 
COMPS,ioos:station:USF.COMPS:BGC:1,2014-10-01T20:24:00Z,26.4040,-81.8810,10.0,6.05,253.01,7.93,'1111122,1111122,1111122' 